Location: Wien
(48.2082°N, 16.3738°E)
Time: 21:30:20
(UTC+02:00)

SEEDS - Visible Passes

Search period start: 22 April 2024 00:00
Search period end: 02 May 2024 00:00
Orbit: 554 x 564 km, 97.7° (Epoch: 21 April)

Date Brightness Start Highest point End Pass type
(mag) Time Alt. Az. Time Alt. Az. Time Alt. Az.
22 Apr ? 04:34:57 10° NNE 04:38:50 46° E 04:42:40 10° S visible
23 Apr ? 04:33:33 10° NNE 04:37:24 44° E 04:41:13 10° S visible
24 Apr ? 04:32:06 10° NNE 04:35:57 43° E 04:39:44 10° S visible
25 Apr ? 04:30:38 10° NNE 04:34:26 41° E 04:38:12 10° S visible
26 Apr ? 04:29:06 10° NNE 04:32:53 40° E 04:36:38 10° SSE visible
27 Apr ? 04:27:32 10° NNE 04:31:18 38° E 04:35:01 10° SSE visible
28 Apr ? 04:25:56 10° NNE 04:29:40 37° E 04:33:22 10° SSE visible
29 Apr ? 04:24:18 10° NNE 04:27:59 35° E 04:31:40 10° SSE visible
30 Apr ? 04:22:37 10° NNE 04:26:16 34° E 04:29:55 10° SSE visible
01 May ? 04:20:54 10° NNE 04:24:31 32° E 04:28:07 10° SSE visible
